This is the latest recevied weather packets stored in our database for station/object W4SNA-4. If no packets are shown the sender has not sent any weather packets the latest 10 day(s).
| Time | Temp. | Humidity | Pressure | Rain* | Wind** | Luminosity | Snow |
|---|---|---|---|---|---|---|---|
| 1777843111 | 18.33° C | 38% | 1011.3 hPa | 0 mm | - | - | - |
| 1777842811 | 18.33° C | 34% | 1011.3 hPa | 0 mm | - | - | - |
| 1777842511 | 18.33° C | 35% | 1011.4 hPa | 0 mm | - | - | - |
| 1777842211 | 18.33° C | 36% | 1011.4 hPa | 0 mm | - | - | - |
| 1777841912 | 18.33° C | 38% | 1011.4 hPa | 0 mm | - | - | - |
| 1777841611 | 18.33° C | 38% | 1011.4 hPa | 0 mm | - | - | - |
| 1777841311 | 17.78° C | 39% | 1011.4 hPa | 0 mm | - | - | - |
| 1777841012 | 17.78° C | 35% | 1011.4 hPa | 0 mm | - | - | - |
| 1777840711 | 17.78° C | 38% | 1011.7 hPa | 0 mm | - | - | - |
| 1777840411 | 17.78° C | 38% | 1011.7 hPa | 0 mm | - | - | - |
| 1777840112 | 17.78° C | 35% | 1011.7 hPa | 0 mm | - | - | - |
| 1777839810 | 17.78° C | 37% | 1011.9 hPa | 0 mm | - | - | - |
| 1777839511 | 17.78° C | 39% | 1011.9 hPa | 0 mm | - | - | - |
| 1777839211 | 17.78° C | 37% | 1011.9 hPa | 0 mm | - | - | - |
| 1777838911 | 17.78° C | 36% | 1012 hPa | 0 mm | - | - | - |
| 1777838617 | 17.78° C | 37% | 1012 hPa | 0 mm | - | - | - |
| 1777838312 | 17.78° C | 38% | 1012 hPa | 0 mm | - | - | - |
| 1777838015 | 17.78° C | 36% | 1012.2 hPa | 0 mm | - | - | - |
| 1777837711 | 17.78° C | 38% | 1012.2 hPa | 0 mm | - | - | - |
| 1777837411 | 17.78° C | 38% | 1012.2 hPa | 0 mm | - | - | - |
| 1777837111 | 17.78° C | 37% | 1012.5 hPa | 0 mm | - | - | - |
| 1777836811 | 17.22° C | 38% | 1012.5 hPa | 0 mm | - | - | - |
| 1777836515 | 17.22° C | 39% | 1012.5 hPa | 0 mm | - | - | - |
| 1777836211 | 17.22° C | 39% | 1012.6 hPa | 0 mm | - | - | - |
| 1777835911 | 17.22° C | 39% | 1012.6 hPa | 0 mm | - | - | - |
* Rain latest hour (hover to see other rain measurements)
** Current wind speed in m/s (hover to see current wind gust speed)